Location: Catacaguana
(10.4120°N, 66.7591°W)
Time: 06:31:12
(UTC+00:00)

Cosmos 2297 Rocket - Pass Details

Date: 27 May 2022
Orbit: 840 x 842 km, 71.0° (Epoch: 26 June)

Event Time Altitude Azimuth Distance (km) Brightness Sun altitude
Rises 00:21:18 0° 3° (N) 3,384 5.7 -22.5°
Reaches altitude 10° 00:24:06 10° 15° (NNE) 2,450 4.8 -23.1°
Enters shadow 00:27:38 25° 52° (NE) 1,621 3.4 -23.9°
